STARLINK-31570, 59324

Orbit data source: Space-Track

STARLINK-31570, 59324 is a payload satellite owned by SpaceX/Seattle (US) in LEO that was launched on Mon, 25 Mar 2024 UTC via an FALCON 9 launch vehicle from the Air Force Eastern Test Range (AFETR). Payload-class satellites include a variety of spacecraft equipped with specific instruments for various scientific and technological missions. These include communications satellites like Starlink; space stations such as the ISS; scientific satellites like the Hubble; Earth observation satellites from companies like Planet Labs, Umbra, and HawkEye 360; GPS; miniature CubeSats for education and research; and military/defense satellites.

Loading next visibility...
Identifier
59324, 2024-057E
Orbit
LEO
Country
Flag of USUS
Related business
Manufacturer
SpaceX/Seattle
Mission
Operational Commercial Communications
Bus & Motor
STARLINK V2M, Unknown motor
Mass
730 kg wet, ~700 kg dry
Launch date (UTC)
2024-03-25 (2 years ago)
Launch vehicle
FALCON 9
Launch site
Air Force Eastern Test Range (AFETR)
Object type
Payload
Rocket body
Debris
Shape & HBR
Box + 2 Pan, 17.7 m
Radar Cross Section
33.884 m², Large (>1 m²)

Expand to show TLE details & history
Last TLE update: 2 days ago

TLE from 2 days ago
0 STARLINK-31570
1 59324U 24057E   26171.47127573 -.00002806  00000-0 -92518-4 0  9991
2 59324  43.0024 327.0089 0001748 287.2163  72.8497 15.27564101125553
Epoch: 2026-06-20T11:18Z
TLE epoch observation values (Epoch: 2026-06-20T11:18:38.223Z)
Latitude
-0.00002°
Longitude
-111.33581°
Altitude
482.519 km
Speed
7.626 km/s
True Right ascension
21h 48m 02s
True Declination
0° 00' 00"
Sunlit
Object was in full shadow at epoch
Visualization orbit readout
Latitude
Unknown
Longitude
Unknown
Altitude
Unknown
Speed
Unknown
Apparent Right ascension
Unknown
Apparent Declination
Unknown
Sunlit
N/A
Visualization observer readout
Local Sidereal Time
21:28:25
Azimuth
Unknown
Elevation
Unknown
Doppler factor
Unknown
Orbital elements
Apogee altitude
486.241 km
Perigee altitude
483.842 km
Semi-major axis
6,863.178 km
Eccentricity
0.00017
Inclination
43.0024°
RAAN
327.0089°
Arg. of periapsis
287.2163°
True anomaly
72.86884°
Mean anomaly
72.8497°
Eccentric anomaly
72.85927°
Mean motion
3.81729 °/min
Orbital period
94.31 mins
BSTAR
-0.000092518
Loading maneuver chart data...
Computing Atmospheric mass density...
Loading historical data...
Loading historical data...
Loading historical data...
Loading historical data...
Loading historical data...
Loading historical data...
Loading historical data...

Documentation

Showing up to 5 results
|